Back to catalog

STARLINK-11332

AliveCommunicationsVLEO
NORAD 61539·PAYLOAD·🇺🇸 United States

Launched Oct 15, 2024 from Vandenberg Space Force Base

Loading…

Next Passes (next 24 hours)

TLE

FreshSource: CelesTrak SupGP

Epoch: Sep 14, 2026, 14:08 UTC

1 61539C 24184H   26257.58937500 -.00031800  00000+0 -26199-3 0  2572
2 61539  53.1571  24.7665 0001082  84.6432 158.9955 15.69721094    13

Track STARLINK-11332 in real time with AllMySat

Download on the App Store